Hermiston, OR

10:48 PM PDT on April 26, 2018 (GMT -0700)
Hermiston Municipal

Weather History for KHRI - August, 2013

Change the Weather History Date:

Wednesday, August 21, 2013

  Actual Average Record
Temperature  
Mean Temperature 70 °F 71 °F  
Max Temperature 91 °F 88 °F 102 °F (2009)
Min Temperature 50 °F 54 °F 37 °F (1916)
Cooling Degree Days 6    
Growing Degree Days 20 (Base 50)    
Moisture  
Dew Point 42 °F    
Average Humidity 38    
Maximum Humidity 68    
Minimum Humidity 14    
Precipitation  
Precipitation 0.00 in 0.01 in 0.13 in (1965)
Month to date precipitation 0.19  
Year to date precipitation 6.48  
Sea Level Pressure  
Sea Level Pressure 29.94 in    
Wind  
Wind Speed 4 mph (ESE)    
Max Wind Speed 8 mph    
Max Gust Speed -    
Visibility 10 miles    
Events      
T = Trace of Precipitation, MM = Missing Value Source: NWS Daily Summary

Daily Weather History Graph

Daily Weather History Graph

Search for Another Location

Airport or City:

Astronomy

Aug. 21, 2013 Rise Set
Actual Time 6:04 AM PDT 7:54 PM PDT
Civil Twilight 5:32 AM PDT 8:26 PM PDT
Nautical Twilight 4:53 AM PDT 9:04 PM PDT
Astronomical Twilight 4:11 AM PDT 9:47 PM PDT
Moon 7:58 PM PDT (8/21) 6:56 AM PDT (8/21)
Length of Visible Light 14h 53m
Length of Day
13h 49m
Full, 99% of the Moon is Illuminated
Aug 21
Full
Aug 28
Last Quarter
Sep 5
New
Sep 12
First Quarter
Sep 19
Full

Hourly Weather History & Observations

Time (PDT) Temp. Dew Point Humidity Pressure Visibility Wind Dir Wind Speed Gust Speed Precip Events Conditions
12:53 AM 57.0 °F 41.0 °F 55% 29.96 in 10.0 mi East 5.8 mph - N/A   Clear
1:53 AM 55.9 °F 42.1 °F 60% 29.97 in 10.0 mi ESE 3.5 mph - N/A   Clear
2:53 AM 55.0 °F 39.0 °F 55% 29.96 in 10.0 mi Calm Calm - N/A   Clear
3:53 AM 53.1 °F 39.9 °F 61% 29.96 in 10.0 mi SE 5.8 mph - N/A   Clear
4:53 AM 51.1 °F 41.0 °F 68% 29.97 in 10.0 mi SSE 5.8 mph - N/A   Clear
5:53 AM 50.0 °F 39.9 °F 68% 29.99 in 10.0 mi SSE 3.5 mph - N/A   Clear
6:53 AM 53.1 °F 41.0 °F 64% 30.00 in 10.0 mi Calm Calm - N/A   Clear
7:53 AM 62.1 °F 42.1 °F 48% 30.01 in 10.0 mi Calm Calm - N/A   Clear
8:53 AM 69.1 °F 42.1 °F 38% 30.02 in 10.0 mi Calm Calm - N/A   Clear
9:53 AM 73.9 °F 43.0 °F 33% 30.02 in 10.0 mi Calm Calm - N/A   Clear
10:53 AM 78.1 °F 44.1 °F 30% 30.01 in 10.0 mi Calm Calm - N/A   Clear
11:53 AM 81.0 °F 45.0 °F 28% 30.00 in 10.0 mi Variable 4.6 mph - N/A   Clear
12:53 PM 84.0 °F 46.0 °F 26% 29.98 in 10.0 mi NE 3.5 mph - N/A   Clear
1:53 PM 88.0 °F 45.0 °F 22% 29.96 in 10.0 mi NNE 6.9 mph - N/A   Clear
2:53 PM 89.1 °F 42.1 °F 19% 29.93 in 10.0 mi Variable 3.5 mph - N/A   Clear
3:53 PM 91.0 °F 37.0 °F 15% 29.91 in 10.0 mi NE 8.1 mph - N/A   Clear
4:53 PM 89.1 °F 33.1 °F 14% 29.90 in 10.0 mi ENE 6.9 mph - N/A   Clear
5:53 PM 88.0 °F 39.0 °F 18% 29.88 in 10.0 mi ENE 4.6 mph - N/A   Clear
6:53 PM 84.9 °F 41.0 °F 21% 29.86 in 10.0 mi NE 3.5 mph - N/A   Clear
7:53 PM 84.0 °F 41.0 °F 22% 29.87 in 10.0 mi Calm Calm - N/A   Clear
8:53 PM 77.0 °F 44.1 °F 31% 29.87 in 10.0 mi Calm Calm - N/A   Clear
9:53 PM 73.9 °F 48.0 °F 40% 29.88 in 10.0 mi South 4.6 mph - N/A   Clear
10:53 PM 69.1 °F 43.0 °F 39% 29.88 in 10.0 mi SSW 5.8 mph - N/A   Clear
11:53 PM 68.0 °F 39.0 °F 35% 29.88 in 10.0 mi South 5.8 mph - N/A   Clear